Regional Weather Roundup
Issued by NWS

Home | Current Version | Previous Version | Text Only | Print | Product List | Glossary Off
Versions: 1 2 3 4 5 6 7 8 9 10 11 12 13 14 15 16 17 18 19 20 21 22 23 24 25 26 27 28 29 30 31 32 33 34 35 36 37 38 39 40 41 42 43 44 45 46 47 48 49 50

294
ASUS43 KIND 070209
RWRIN

WEATHER ROUNDUP FOR INDIANA
NATIONAL WEATHER SERVICE INDIANAPOLIS IN
900 PM EST TUE DEC 06 2016

NOTE: "FAIR" INDICATES FEW OR NO CLOUDS BELOW 12,000 FEET WITH NO
SIGNIFICANT WEATHER AND/OR OBSTRUCTIONS TO VISIBILITY.

* - STATION DOES NOT REPORT WEATHER SUCH AS PRECIPITATION OR FOG.

+ - STATION NOT QUALITY CONTROLLED BY THE NATIONAL WEATHER SERVICE.
    USE DATA WITH CAUTION...ESPECIALLY DEWPOINT AND RELATIVE
    HUMIDITY OBSERVATIONS.

INZ001>003-010>013-019-020-070300-
NORTHWEST INDIANA

CITY           SKY/WX    TMP DP  RH WIND       PRES   REMARKS
GARY /AIRPORT/ CLEAR     32  25  74 W20G31    29.93R WCI  20
KNOX *+        PTCLDY    32   9  37 W15       29.92R WCI  22
LA PORTE +     CLOUDY    32  31  94 W15G21    29.91R WCI  22
MICHIGAN CITY+ PTCLDY    32  23  69 W18G26    29.92R WCI  20
MONTICELLO +   PTCLDY    32  26  79 W9        29.94S WCI  24
RENSSELAER +   CLOUDY    32  30  93 W15G21    29.95R WCI  22
VALPARAISO     PTCLDY    31  23  72 W20G28    29.92R WCI  19

$$

LMZ046-743>745-070300-
SOUTHERN LAKE MICHIGAN

STATION/POSITION TIME  TEMP    WIND        PRES    WAVE
                       AIR SEA DIR/SP/G            HT
                 (UTC) (F)     (DEG/KT/KT) (MB)    (FT)

$$

INZ004-005-014>016-021>024-070300-
NORTH CENTRAL INDIANA

CITY           SKY/WX    TMP DP  RH WIND       PRES   REMARKS
ELKHART        CLOUDY    36  30  80 W12       29.86R
GOSHEN         CLOUDY    34  29  82 W15       29.88R WCI  24
LOGANSPORT +   MOCLDY    32  30  93 W10       29.95R WCI  24
PERU/GRISSOM   MOCLDY    33  30  90 W14       29.92R WCI  23
ROCHESTER +    PTCLDY    34  30  86 W13G20    29.93R WCI  25
SOUTH BEND     CLOUDY    32  29  88 W12       29.89R WCI  23
WARSAW +       CLOUDY    32  28  86 W14       29.89R WCI  22

$$

INZ006>009-017-018-025>027-070300-
NORTHEAST INDIANA

CITY           SKY/WX    TMP DP  RH WIND       PRES   REMARKS
ANGOLA *+      MOCLDY    36  34  93 W9        29.83R
AUBURN +       PTCLDY    36  32  87 W12       29.87R
FORT WAYNE     MOCLDY    34  29  82 W15       29.89R WCI  24
HUNTINGTON +   CLOUDY    33  30  89 W10G21    29.90R WCI  25
KENDALLVILLE + CLOUDY    34  32  92 W17G23    29.85R FOG     WCI  23

$$

INZ028-029-035-036-043>045-051>053-070300-
WEST CENTRAL INDIANA

CITY           SKY/WX    TMP DP  RH WIND       PRES   REMARKS
CRAWFORDSVL +  CLOUDY    32  32 100 SW7       29.97R WCI  26
LAFAYETTE      MOCLDY    31  29  92 W7        29.97R WCI  24
TERRE HAUTE    CLEAR     35  28  75 W6        30.00R WCI  30

$$

INZ030>032-037>040-046>048-054>057-064-065-070300-
CENTRAL INDIANA

CITY           SKY/WX    TMP DP  RH WIND       PRES   REMARKS
CP ATTERBURY + CLOUDY    36  32  87 W5        29.98R
COLUMBUS       CLOUDY    36  34  93 W9        29.98R
FISHERS *+     PTCLDY    32  32 100 W9        29.95R WCI  24
FRANKFORT +    MOCLDY    35  32  90 NW13      29.96S WCI  26
GREENWOOD *+   CLOUDY    37  32  82 NW7       29.96R
INDIANAPOLIS   MOCLDY    34  30  85 W10       29.96R WCI  26
-EAGLE CREEK   CLEAR     36  30  79 W12       29.95R
MARION +       MOCLDY    33  30  89 W16       29.93R WCI  23
MT COMFORT *+  PTCLDY    34  30  86 NW16      29.95R WCI  23
SHELBYVILLE    PTCLDY    37  30  75 NW12      29.95R
ZIONSVILLE +   PTCLDY    33  30  90 W9        29.95S WCI  25

$$

INZ033-034-041-042-049-050-058-059-070300-
EAST CENTRAL INDIANA

CITY           SKY/WX    TMP DP  RH WIND       PRES   REMARKS
MUNCIE         MOCLDY    36  31  82 W14       29.92R

$$

INZ060-061-067>069-081>083-085>088-070300-
SOUTHWEST INDIANA

CITY           SKY/WX    TMP DP  RH WIND       PRES   REMARKS
EVANSVILLE     CLOUDY    39  34  82 CALM      30.05R
HUNTINGBURG *+ CLOUDY    37  34  89 NW5       30.03R
WASHINGTON +   MOCLDY    37  36  93 W7        30.02R

$$

INZ062-063-066-070>080-084-089>092-070300-
SOUTH CENTRAL AND SOUTHEAST INDIANA

CITY           SKY/WX    TMP DP  RH WIND       PRES   REMARKS
BLOOMINGTON    PTCLDY    36  31  82 W6        29.98R
MADISON *+     CLOUDY    37  32  81 NW7       30.00R
NORTH VERNON + CLOUDY    37  37 100 W6        29.98R
SEYMOUR +      CLOUDY    39  32  75 W5        29.99R

$$





USA.gov is the U.S. government's official web portal to all federal, state and local government web resources and services.